This is the latest recevied weather packets stored in our database for station/object SP6PWT-13. If no packets are shown the sender has not sent any weather packets the latest 10 day(s).
| Time | Temp. | Humidity | Pressure | Rain* | Wind** | Luminosity | Snow |
|---|---|---|---|---|---|---|---|
| 1777123573 | 17.22° C | 34% | 994.8 hPa | 0 mm | - | 456 W/m² | - |
| 1777123262 | 17.78° C | 33% | 994.7 hPa | 0 mm | - | 464 W/m² | - |
| 1777122962 | 17.78° C | 33% | 994.7 hPa | 0 mm | - | 475 W/m² | - |
| 1777122661 | 17.78° C | 34% | 994.9 hPa | 0 mm | - | 490 W/m² | - |
| 1777122360 | 17.22° C | 34% | 994.7 hPa | 0 mm | - | 499 W/m² | - |
| 1777122059 | 17.78° C | 35% | 994.9 hPa | 0 mm | - | 506 W/m² | - |
| 1777121748 | 17.22° C | 35% | 995 hPa | 0 mm | - | 508 W/m² | - |
| 1777121448 | 17.22° C | 35% | 995.2 hPa | 0 mm | - | 517 W/m² | - |
| 1777121137 | 17.78° C | 34% | 995 hPa | 0 mm | - | 530 W/m² | - |
| 1777120836 | 17.22° C | 36% | 995.1 hPa | 0 mm | - | 540 W/m² | - |
| 1777120536 | 17.22° C | 36% | 995.2 hPa | 0 mm | - | 544 W/m² | - |
| 1777120235 | 16.67° C | 36% | 995.1 hPa | 0 mm | - | 555 W/m² | - |
| 1777119934 | 16.67° C | 36% | 995.1 hPa | 0 mm | - | 561 W/m² | - |
| 1777119633 | 16.67° C | 35% | 995.2 hPa | 0 mm | - | 571 W/m² | - |
| 1777119333 | 16.67° C | 35% | 995.3 hPa | 0 mm | - | 571 W/m² | - |
| 1777119032 | 16.67° C | 36% | 995.3 hPa | 0 mm | - | 580 W/m² | - |
| 1777118732 | 15.56° C | 38% | 995.3 hPa | 0 mm | - | 591 W/m² | - |
| 1777118432 | 16.11° C | 36% | 995.6 hPa | 0 mm | - | 596 W/m² | - |
| 1777118130 | 15.56° C | 36% | 995.7 hPa | 0 mm | - | 605 W/m² | - |
| 1777117830 | 16.11° C | 37% | 995.4 hPa | 0 mm | - | 601 W/m² | - |
| 1777117528 | 15.56° C | 38% | 995.5 hPa | 0 mm | - | 609 W/m² | - |
| 1777117228 | 15.56° C | 40% | 995.7 hPa | 0 mm | - | 614 W/m² | - |
| 1777116927 | 15.56° C | 40% | 995.9 hPa | 0 mm | - | 623 W/m² | - |
| 1777116627 | 15.56° C | 40% | 995.8 hPa | 0 mm | - | 623 W/m² | - |
| 1777116326 | 16.11° C | 43% | 996 hPa | 0 mm | - | 626 W/m² | - |
* Rain latest hour (hover to see other rain measurements)
** Current wind speed in m/s (hover to see current wind gust speed)